Location: Spring Creek
(38.2870°N, 100.2160°W)
Time: 10:47:24
(UTC+00:00)

Meteor 1-28 Rocket - Pass Details

Date: 08 May 2021
Orbit: 504 x 521 km, 97.4° (Epoch: 22 June)

Event Time Altitude Azimuth Distance (km) Brightness Sun altitude
Exits shadow 09:30:08 72° 290° (WNW) 534 3.0 -21.3°
Drops below altitude 10° 09:33:40 10° 345° (NNW) 1,723 6.2 -20.8°
Sets 09:35:46 0° 347° (NNW) 2,613 7.2 -20.5°
